Weather History for Topeka, KS

Change the Weather History Date:

Saturday, February 16, 2013

  Actual Average Record
Temperature  
Mean Temperature 30 °F 35 °F  
Max Temperature 39 °F 45 °F 74 °F (1961)
Min Temperature 20 °F 24 °F -9 °F (1903)
Degree Days  
Heating Degree Days 35 30  
Month to date heating degree days 436 519  
Since 1 July heating degree days 3144 3629  
Cooling Degree Days 0 0  
Month to date cooling degree days 0 0  
Year to date cooling degree days 0 0  
Moisture  
Dew Point 20 °F    
Average Humidity 63    
Maximum Humidity 85    
Minimum Humidity 40    
Precipitation  
Precipitation 0.01 in 0.04 in 1.75 in (1911)
Month to date precipitation 0.65 0.70  
Year to date precipitation 1.20 1.56  
Snow  
Snow 0.10 in 0.20 in 2.20 in (1975)
Month to date snowfall 1.2 3.0  
Year to date snowfall 2.7 7.9  
Since 1 July snowfall 8.1 14.4  
Snow Depth 0.00 in    
Sea Level Pressure  
Sea Level Pressure 30.25 in    
Wind  
Wind Speed 8 mph (SW)    
Max Wind Speed 15 mph    
Max Gust Speed 21 mph    
Visibility 9 miles    
Events Snow    
T = Trace of Precipitation, MM = Missing Value Source: NWS Daily Summary

Daily Weather History Graph

Daily Weather History Graph

Search for Another Location

Airport:

Trip Planner

Search our weather history database for the weather conditions in past years. The results will help you decide how hot, cold, wet, or windy it might be!

Date:

Astronomy

Feb. 16, 2013 Rise Set
Actual Time 7:12 AM CST 6:01 PM CST
Civil Twilight 6:45 AM CST 6:28 PM CST
Nautical Twilight 6:13 AM CST 6:59 PM CST
Astronomical Twilight 5:42 AM CST 7:30 PM CST
Moon 10:29 AM CST (2/16) No Moon Set
Length of Visible Light 11h 43m
Length of Day
10h 48m
Waxing Crescent, 39% of the Moon is Illuminated
Feb 16
Waxing Crescent
Feb 17
First Quarter
Feb 25
Full
Mar 4
Last Quarter
Mar 11
New

Hourly Weather History & Observations

Time (CST) Temp. Windchill Dew Point Humidity Pressure Visibility Wind Dir Wind Speed Gust Speed Precip Events Conditions
12:40 AM 28.0 °F 20.8 °F 24.1 °F 85% 30.33 in 4.0 mi North 6.9 mph - 0.00 in Snow Light Snow
12:53 AM 27.0 °F 20.5 °F 24.1 °F 89% 30.35 in 5.0 mi North 5.8 mph - 0.00 in Snow Light Snow
1:15 AM 27.0 °F 20.5 °F 24.1 °F 89% 30.33 in 1.8 mi NNW 5.8 mph - 0.00 in Snow Light Snow
1:29 AM 27.0 °F 21.6 °F 24.1 °F 89% 30.33 in 2.5 mi North 4.6 mph - 0.01 in Snow Light Snow
1:36 AM 27.0 °F 23.0 °F 24.1 °F 89% 30.34 in 3.0 mi NNW 3.5 mph - 0.01 in Snow Light Snow
1:53 AM 27.0 °F 21.6 °F 24.1 °F 89% 30.36 in 8.0 mi NNW 4.6 mph - 0.01 in   Overcast
2:00 AM 27.0 °F 21.6 °F 24.1 °F 89% 30.33 in 8.0 mi NNW 4.6 mph - N/A   Overcast
2:53 AM 27.0 °F 20.5 °F 23.0 °F 85% 30.36 in 9.0 mi NNW 5.8 mph - N/A   Overcast
3:53 AM 26.1 °F 20.5 °F 21.0 °F 81% 30.36 in 10.0 mi NNW 4.6 mph - N/A   Overcast
4:53 AM 26.1 °F - 21.0 °F 81% 30.35 in 10.0 mi Calm Calm - N/A   Overcast
5:40 AM 25.0 °F - 19.0 °F 78% 30.32 in 10.0 mi Calm Calm - N/A   Partly Cloudy
5:53 AM 21.2 °F 13.6 °F 17.6 °F 86% 30.33 in 10.0 mi West 5.8 mph - N/A   Clear
6:53 AM 21.9 °F 14.5 °F 18.0 °F 85% 30.35 in 9.0 mi West 5.8 mph - N/A   Partly Cloudy
7:53 AM 21.9 °F 17.2 °F 17.1 °F 82% 30.35 in 9.0 mi WNW 3.5 mph - N/A   Clear
8:53 AM 23.0 °F 17.0 °F 18.0 °F 81% 30.34 in 9.0 mi West 4.6 mph - N/A   Overcast
9:53 AM 26.1 °F 17.6 °F 19.9 °F 78% 30.32 in 9.0 mi SW 8.1 mph - N/A   Partly Cloudy
10:53 AM 30.0 °F 21.7 °F 21.9 °F 72% 30.30 in 10.0 mi SW 9.2 mph - N/A   Overcast
11:53 AM 33.1 °F 24.9 °F 21.0 °F 61% 30.26 in 10.0 mi South 10.4 mph - N/A   Overcast
12:53 PM 35.1 °F 28.6 °F 19.9 °F 54% 30.22 in 10.0 mi South 8.1 mph - N/A   Overcast
1:53 PM 35.1 °F 27.4 °F 17.1 °F 48% 30.19 in 10.0 mi SSW 10.4 mph - N/A   Overcast
2:53 PM 36.0 °F 28.5 °F 16.0 °F 44% 30.17 in 10.0 mi South 10.4 mph - N/A   Overcast
3:53 PM 37.9 °F 29.6 °F 15.1 °F 39% 30.16 in 10.0 mi SSW 13.8 mph 20.7 mph N/A   Overcast
4:53 PM 37.9 °F 31.5 °F 15.1 °F 39% 30.14 in 10.0 mi South 9.2 mph - N/A   Overcast
5:53 PM 37.9 °F 30.5 °F 16.0 °F 41% 30.13 in 10.0 mi SSE 11.5 mph - N/A   Overcast
6:53 PM 37.0 °F 28.9 °F 18.0 °F 46% 30.12 in 10.0 mi SE 12.7 mph - N/A   Overcast
7:53 PM 36.0 °F 29.0 °F 18.0 °F 48% 30.12 in 10.0 mi SE 9.2 mph - N/A   Overcast
8:53 PM 36.0 °F 29.6 °F 19.0 °F 50% 30.11 in 10.0 mi SSE 8.1 mph - N/A   Overcast
9:53 PM 37.0 °F 31.0 °F 19.0 °F 48% 30.09 in 10.0 mi South 8.1 mph - N/A   Overcast
10:53 PM 37.0 °F 32.4 °F 17.1 °F 44% 30.09 in 10.0 mi South 5.8 mph - N/A   Overcast
11:53 PM 37.0 °F 31.0 °F 16.0 °F 42% 30.07 in 10.0 mi South 8.1 mph - N/A   Overcast